Time,TemperatureF,DewpointF,PressureIn,WindDirection,WindDirectionDegrees,WindSpeedMPH,WindSpeedGustMPH,Humidity,HourlyPrecipIn,Conditions,Clouds,dailyrainin,SoftwareType,DateUTC
2013-05-04 00:05:00,34.3,29.7,30.02,North,5,5.8,5.8,83,0.07,RA,RA,0.01,WeatherDisplay:10.37,2013-05-04 05:05:00,
2013-05-04 00:10:00,34.4,29.8,30.02,North,349,5.0,5.0,83,0.06,OVC,OVC,0.01,WeatherDisplay:10.37,2013-05-04 05:10:00,
2013-05-04 00:15:00,34.4,29.8,30.02,NNE,21,6.0,6.0,83,0.07,RA,RA,0.02,WeatherDisplay:10.37,2013-05-04 05:15:00,
2013-05-04 00:20:00,34.4,29.8,30.02,North,5,4.6,4.6,83,0.07,RA,RA,0.03,WeatherDisplay:10.37,2013-05-04 05:20:00,
2013-05-04 00:26:00,34.4,29.8,30.02,North,10,9.2,9.2,83,0.06,RA,RA,0.03,WeatherDisplay:10.37,2013-05-04 05:26:00,
2013-05-04 00:31:00,34.4,29.8,30.01,NE,50,5.0,5.0,83,0.07,RA,RA,0.04,WeatherDisplay:10.37,2013-05-04 05:31:00,
2013-05-04 00:36:00,34.4,29.8,30.00,NNE,22,6.9,6.9,83,0.07,RA,RA,0.04,WeatherDisplay:10.37,2013-05-04 05:36:00,
2013-05-04 00:41:00,34.4,29.8,30.00,North,360,9.0,9.0,83,0.07,RA,RA,0.05,WeatherDisplay:10.37,2013-05-04 05:41:00,
2013-05-04 00:47:00,34.4,29.8,30.00,NE,39,6.9,6.9,83,0.06,RA,RA,0.05,WeatherDisplay:10.37,2013-05-04 05:47:00,
2013-05-04 00:52:00,34.4,29.8,30.00,NNW,333,3.5,3.5,83,0.06,OVC,OVC,0.05,WeatherDisplay:10.37,2013-05-04 05:52:00,
2013-05-04 00:57:00,34.4,29.8,30.00,North,355,11.5,11.5,83,0.06,RA,RA,0.06,WeatherDisplay:10.37,2013-05-04 05:57:00,
2013-05-04 01:02:00,34.4,29.8,30.00,NE,37,5.8,5.8,83,0.06,RA,RA,0.06,WeatherDisplay:10.37,2013-05-04 06:02:00,
2013-05-04 01:08:00,34.4,29.8,29.99,NNW,336,6.9,6.9,83,0.06,RA,RA,0.07,WeatherDisplay:10.37,2013-05-04 06:08:00,
2013-05-04 01:13:00,34.4,29.8,30.00,North,5,12.7,12.7,83,0.05,RA,RA,0.07,WeatherDisplay:10.37,2013-05-04 06:13:00,
2013-05-04 01:18:00,34.4,29.8,29.99,North,355,11.5,11.5,83,0.05,OVC,OVC,0.07,WeatherDisplay:10.37,2013-05-04 06:18:00,
2013-05-04 01:24:00,34.4,29.8,29.99,NNW,328,4.0,4.0,83,0.04,OVC,OVC,0.08,WeatherDisplay:10.37,2013-05-04 06:24:00,
2013-05-04 01:29:00,34.4,29.8,29.99,North,360,11.5,11.5,83,0.04,RA,RA,0.08,WeatherDisplay:10.37,2013-05-04 06:29:00,
2013-05-04 01:34:00,34.4,29.8,29.99,NNW,341,6.9,6.9,83,0.05,RA,RA,0.09,WeatherDisplay:10.37,2013-05-04 06:34:00,
2013-05-04 01:39:00,34.4,29.8,29.99,NNE,12,5.8,5.8,83,0.05,RA,RA,0.10,WeatherDisplay:10.37,2013-05-04 06:39:00,
2013-05-04 01:45:00,34.4,29.8,29.99,NW,309,11.5,11.5,83,0.06,RA,RA,0.11,WeatherDisplay:10.37,2013-05-04 06:45:00,
2013-05-04 01:50:00,34.4,29.8,29.99,NNE,20,12.7,12.7,83,0.07,RA,RA,0.12,WeatherDisplay:10.37,2013-05-04 06:50:00,
2013-05-04 01:55:00,34.5,29.9,29.99,NE,36,7.0,7.0,83,0.07,RA,RA,0.13,WeatherDisplay:10.37,2013-05-04 06:55:00,
2013-05-04 02:00:00,34.5,29.9,29.99,North,355,6.0,6.0,83,0.08,RA,RA,0.14,WeatherDisplay:10.37,2013-05-04 07:00:00,
2013-05-04 02:05:00,34.6,30.0,29.98,NNW,340,5.8,5.8,83,0.08,RA,RA,0.15,WeatherDisplay:10.37,2013-05-04 07:05:00,
2013-05-04 02:11:00,34.6,30.3,29.98,North,5,12.7,12.7,84,0.08,RA,RA,0.15,WeatherDisplay:10.37,2013-05-04 07:11:00,
2013-05-04 02:16:00,34.5,30.2,29.97,NNE,26,3.5,3.5,84,0.09,RA,RA,0.16,WeatherDisplay:10.37,2013-05-04 07:16:00,
2013-05-04 02:21:00,34.5,30.2,29.97,NNE,24,5.8,5.8,84,0.09,RA,RA,0.16,WeatherDisplay:10.37,2013-05-04 07:21:00,
2013-05-04 02:26:00,34.5,30.2,29.97,NNW,336,4.0,6.5,84,0.09,RA,RA,0.17,WeatherDisplay:10.37,2013-05-04 07:26:00,
2013-05-04 02:32:00,34.5,30.2,29.97,NNW,331,6.9,6.9,84,0.08,RA,RA,0.17,WeatherDisplay:10.37,2013-05-04 07:32:00,
2013-05-04 02:37:00,34.6,30.3,29.97,NNE,14,3.5,3.5,84,0.09,RA,RA,0.18,WeatherDisplay:10.37,2013-05-04 07:37:00,
2013-05-04 02:42:00,34.6,30.3,29.97,NE,35,12.7,12.7,84,0.08,RA,RA,0.19,WeatherDisplay:10.37,2013-05-04 07:42:00,
2013-05-04 02:48:00,34.7,30.4,29.96,NNE,22,12.7,12.7,84,0.07,RA,RA,0.19,WeatherDisplay:10.37,2013-05-04 07:48:00,
2013-05-04 02:53:00,34.7,30.4,29.97,North,5,6.9,6.9,84,0.07,RA,RA,0.20,WeatherDisplay:10.37,2013-05-04 07:53:00,
2013-05-04 02:58:00,34.7,30.4,29.96,NNE,22,5.0,5.0,84,0.07,RA,RA,0.20,WeatherDisplay:10.37,2013-05-04 07:58:00,
2013-05-04 03:03:00,34.7,30.4,29.96,North,5,4.6,4.6,84,0.07,RA,RA,0.21,WeatherDisplay:10.37,2013-05-04 08:03:00,
2013-05-04 03:09:00,34.7,30.4,29.96,NE,51,11.5,11.5,84,0.06,RA,RA,0.21,WeatherDisplay:10.37,2013-05-04 08:09:00,
2013-05-04 03:14:00,34.8,30.5,29.96,NNW,348,7.0,7.0,84,0.06,,,0.21,WeatherDisplay:10.37,2013-05-04 08:14:00,
2013-05-04 03:19:00,34.8,30.5,29.96,NNW,329,11.5,11.5,84,0.05,,,0.21,WeatherDisplay:10.37,2013-05-04 08:19:00,
2013-05-04 03:24:00,34.9,30.6,29.96,NW,304,12.7,12.7,84,0.05,RA,RA,0.22,WeatherDisplay:10.37,2013-05-04 08:24:00,
2013-05-04 03:30:00,35.0,30.7,29.95,North,5,5.8,5.8,84,0.05,RA,RA,0.22,WeatherDisplay:10.37,2013-05-04 08:30:00,
2013-05-04 03:35:00,35.0,30.7,29.95,NNW,336,13.8,13.8,84,0.05,RA,RA,0.23,WeatherDisplay:10.37,2013-05-04 08:35:00,
2013-05-04 03:40:00,35.1,30.8,29.95,NNE,17,9.0,9.0,84,0.04,RA,RA,0.23,WeatherDisplay:10.37,2013-05-04 08:40:00,
2013-05-04 03:46:00,35.1,30.8,29.95,North,9,5.8,5.8,84,0.04,OVC,OVC,0.23,WeatherDisplay:10.37,2013-05-04 08:46:00,
2013-05-04 03:51:00,35.1,30.8,29.95,NNE,21,11.5,11.5,84,0.05,RA,RA,0.24,WeatherDisplay:10.37,2013-05-04 08:51:00,
2013-05-04 03:56:00,35.1,30.8,29.95,North,360,10.4,10.4,84,0.04,RA,RA,0.24,WeatherDisplay:10.37,2013-05-04 08:56:00,
2013-05-04 04:01:00,35.2,30.9,29.95,NNE,28,10.4,10.4,84,0.05,RA,RA,0.25,WeatherDisplay:10.37,2013-05-04 09:01:00,
2013-05-04 04:07:00,35.2,30.9,29.95,NNE,26,4.6,4.6,84,0.04,RA,RA,0.25,WeatherDisplay:10.37,2013-05-04 09:07:00,
2013-05-04 04:12:00,35.2,30.9,29.94,NW,314,5.8,5.8,84,0.04,OVC,OVC,0.26,WeatherDisplay:10.37,2013-05-04 09:12:00,
2013-05-04 04:17:00,35.2,30.9,29.94,NW,313,10.4,10.4,84,0.05,RA,RA,0.26,WeatherDisplay:10.37,2013-05-04 09:17:00,
2013-05-04 04:22:00,35.2,30.9,29.94,NNE,28,9.2,9.2,84,0.04,RA,RA,0.27,WeatherDisplay:10.37,2013-05-04 09:22:00,
2013-05-04 04:28:00,35.2,30.9,29.95,NNE,20,4.6,4.6,84,0.05,RA,RA,0.27,WeatherDisplay:10.37,2013-05-04 09:28:00,
2013-05-04 04:33:00,35.3,30.9,29.95,North,355,5.8,5.8,84,0.04,OVC,OVC,0.27,WeatherDisplay:10.37,2013-05-04 09:33:00,
2013-05-04 04:38:00,35.3,30.9,29.95,North,355,11.5,11.5,84,0.04,OVC,OVC,0.28,WeatherDisplay:10.37,2013-05-04 09:38:00,
2013-05-04 04:44:00,35.4,31.0,29.95,NNE,22,10.4,10.4,84,0.05,RA,RA,0.28,WeatherDisplay:10.37,2013-05-04 09:44:00,
2013-05-04 04:49:00,35.5,31.1,29.95,NNE,16,8.1,8.1,84,0.05,RA,RA,0.29,WeatherDisplay:10.37,2013-05-04 09:49:00,
2013-05-04 04:54:00,35.4,31.0,29.95,NNW,337,3.5,3.5,84,0.05,RA,RA,0.29,WeatherDisplay:10.37,2013-05-04 09:54:00,
2013-05-04 04:59:00,35.4,31.0,29.95,North,5,4.6,4.6,84,0.04,OVC,OVC,0.29,WeatherDisplay:10.37,2013-05-04 09:59:00,
2013-05-04 05:04:00,35.4,31.0,29.95,NNE,15,4.6,4.6,84,0.05,RA,RA,0.30,WeatherDisplay:10.37,2013-05-04 10:04:00,
2013-05-04 05:10:00,35.5,31.1,29.95,NNW,347,10.4,10.4,84,0.05,RA,RA,0.30,WeatherDisplay:10.37,2013-05-04 10:10:00,
2013-05-04 05:15:00,35.6,31.2,29.95,NE,35,5.8,5.8,84,0.04,OVC,OVC,0.31,WeatherDisplay:10.37,2013-05-04 10:15:00,
2013-05-04 05:20:00,35.7,31.3,29.95,NNE,17,4.6,4.6,84,0.05,RA,RA,0.31,WeatherDisplay:10.37,2013-05-04 10:20:00,
2013-05-04 05:25:00,35.7,31.3,29.95,North,5,10.4,10.4,84,0.04,OVC,OVC,0.31,WeatherDisplay:10.37,2013-05-04 10:25:00,
2013-05-04 05:30:00,35.7,31.3,29.95,WNW,296,5.8,5.8,84,0.05,RA,RA,0.32,WeatherDisplay:10.37,2013-05-04 10:30:00,
2013-05-04 05:36:00,35.8,31.4,29.96,North,360,10.4,10.4,84,0.05,RA,RA,0.32,WeatherDisplay:10.37,2013-05-04 10:36:00,
2013-05-04 05:41:00,35.9,31.5,29.96,NE,41,4.6,4.6,84,0.04,OVC,OVC,0.32,WeatherDisplay:10.37,2013-05-04 10:41:00,
2013-05-04 05:46:00,36.0,31.9,29.96,NNE,13,6.9,6.9,85,0.05,RA,RA,0.33,WeatherDisplay:10.37,2013-05-04 10:46:00,
2013-05-04 05:51:00,36.1,32.0,29.96,North,355,3.5,3.5,85,0.04,RA,RA,0.33,WeatherDisplay:10.37,2013-05-04 10:51:00,
2013-05-04 05:56:00,36.1,32.0,29.96,North,355,6.0,6.0,85,0.04,OVC,OVC,0.33,WeatherDisplay:10.37,2013-05-04 10:56:00,
2013-05-04 06:01:00,36.2,32.1,29.96,North,350,5.8,5.8,85,0.05,RA,RA,0.34,WeatherDisplay:10.37,2013-05-04 11:01:00,
2013-05-04 06:07:00,36.2,32.1,29.96,North,9,5.8,5.8,85,0.04,RA,RA,0.34,WeatherDisplay:10.37,2013-05-04 11:07:00,
2013-05-04 06:12:00,36.2,32.1,29.96,NE,38,5.8,5.8,85,0.05,RA,RA,0.35,WeatherDisplay:10.37,2013-05-04 11:12:00,
2013-05-04 06:17:00,36.2,32.1,29.96,NNE,29,6.9,6.9,85,0.04,RA,RA,0.35,WeatherDisplay:10.37,2013-05-04 11:17:00,
2013-05-04 06:22:00,36.2,32.1,29.97,North,9,4.6,4.6,85,0.04,OVC,OVC,0.36,WeatherDisplay:10.37,2013-05-04 11:22:00,
2013-05-04 06:27:00,36.2,32.1,29.97,North,355,3.5,3.5,85,0.05,RA,RA,0.36,WeatherDisplay:10.37,2013-05-04 11:27:00,
2013-05-04 06:33:00,36.2,32.1,29.96,NNE,17,4.6,4.6,85,0.04,OVC,OVC,0.36,WeatherDisplay:10.37,2013-05-04 11:33:00,
2013-05-04 06:38:00,36.1,32.0,29.96,NNW,335,4.6,4.6,85,0.05,RA,RA,0.37,WeatherDisplay:10.37,2013-05-04 11:38:00,
2013-05-04 06:43:00,36.2,32.1,29.97,NNE,32,11.5,11.5,85,0.05,RA,RA,0.37,WeatherDisplay:10.37,2013-05-04 11:43:00,
2013-05-04 06:48:00,36.3,32.2,29.97,NNE,19,5.8,5.8,85,0.04,OVC,OVC,0.37,WeatherDisplay:10.37,2013-05-04 11:48:00,
2013-05-04 06:53:00,36.3,32.2,29.97,NNE,26,4.6,4.6,85,0.04,OVC,OVC,0.37,WeatherDisplay:10.37,2013-05-04 11:53:00,
2013-05-04 06:59:00,36.5,32.4,29.97,North,5,9.2,9.2,85,0.04,RA,RA,0.38,WeatherDisplay:10.37,2013-05-04 11:59:00,
2013-05-04 07:04:00,36.5,32.4,29.97,NNW,342,5.8,5.8,85,0.04,RA,RA,0.38,WeatherDisplay:10.37,2013-05-04 12:04:00,
2013-05-04 07:09:00,36.6,32.5,29.97,NNW,340,3.5,3.5,85,0.04,RA,RA,0.39,WeatherDisplay:10.37,2013-05-04 12:09:00,
2013-05-04 07:14:00,36.6,32.5,29.97,NNE,29,3.5,3.5,85,0.04,RA,RA,0.39,WeatherDisplay:10.37,2013-05-04 12:14:00,
2013-05-04 07:20:00,36.7,32.6,29.97,NNE,28,10.4,10.4,85,0.04,OVC,OVC,0.39,WeatherDisplay:10.37,2013-05-04 12:20:00,
2013-05-04 07:25:00,36.8,32.7,29.97,NNE,21,6.9,6.9,85,0.04,RA,RA,0.40,WeatherDisplay:10.37,2013-05-04 12:25:00,
2013-05-04 07:31:00,36.7,32.6,29.97,NNE,18,5.8,5.8,85,0.04,RA,RA,0.40,WeatherDisplay:10.37,2013-05-04 12:31:00,
2013-05-04 07:36:00,36.7,32.6,29.97,NNW,344,4.6,4.6,85,0.05,RA,RA,0.41,WeatherDisplay:10.37,2013-05-04 12:36:00,
2013-05-04 07:41:00,36.7,32.6,29.97,NNW,342,4.6,4.6,85,0.04,RA,RA,0.41,WeatherDisplay:10.37,2013-05-04 12:41:00,
2013-05-04 07:47:00,36.8,32.7,29.97,NW,309,6.0,6.0,85,0.04,OVC,OVC,0.41,WeatherDisplay:10.37,2013-05-04 12:47:00,
2013-05-04 07:52:00,36.8,32.7,29.97,North,360,9.2,9.2,85,0.05,RA,RA,0.42,WeatherDisplay:10.37,2013-05-04 12:52:00,
2013-05-04 07:57:00,36.9,32.8,29.98,North,10,2.3,2.3,85,0.05,RA,RA,0.43,WeatherDisplay:10.37,2013-05-04 12:57:00,
2013-05-04 08:02:00,37.0,32.9,29.98,North,355,0.0,0.0,85,0.05,RA,RA,0.43,WeatherDisplay:10.37,2013-05-04 13:02:00,
2013-05-04 08:04:00,37.0,32.9,29.98,NNW,330,3.5,3.5,85,0.05,RA,RA,0.43,WeatherDisplay:10.37,2013-05-04 13:04:00,
2013-05-04 08:09:00,37.1,33.0,29.98,NNW,337,4.0,4.0,85,0.05,RA,RA,0.44,WeatherDisplay:10.37,2013-05-04 13:09:00,
2013-05-04 08:14:00,37.1,33.0,29.98,NNE,23,3.5,3.5,85,0.05,RA,RA,0.44,WeatherDisplay:10.37,2013-05-04 13:14:00,
2013-05-04 08:20:00,37.2,33.1,29.98,North,5,3.5,3.5,85,0.06,RA,RA,0.45,WeatherDisplay:10.37,2013-05-04 13:20:00,
2013-05-04 08:25:00,37.3,33.2,29.98,NW,322,1.2,1.2,85,0.05,RA,RA,0.45,WeatherDisplay:10.37,2013-05-04 13:25:00,
2013-05-04 08:30:00,37.4,33.3,29.99,NNW,346,0.0,0.0,85,0.06,RA,RA,0.46,WeatherDisplay:10.37,2013-05-04 13:30:00,
2013-05-04 08:35:00,37.5,33.4,29.98,North,5,5.0,5.0,85,0.05,RA,RA,0.46,WeatherDisplay:10.37,2013-05-04 13:35:00,
2013-05-04 08:40:00,37.6,33.5,29.99,North,5,3.5,3.5,85,0.06,RA,RA,0.47,WeatherDisplay:10.37,2013-05-04 13:40:00,
2013-05-04 08:45:00,37.7,33.6,29.99,NNW,338,3.5,3.5,85,0.06,RA,RA,0.47,WeatherDisplay:10.37,2013-05-04 13:45:00,
2013-05-04 08:50:00,37.8,33.7,29.99,NE,38,3.5,3.5,85,0.06,RA,RA,0.48,WeatherDisplay:10.37,2013-05-04 13:50:00,
2013-05-04 08:55:00,37.8,33.7,29.99,NE,38,1.2,0.0,85,0.06,RA,RA,0.48,WeatherDisplay:10.37,2013-05-04 13:55:00,
2013-05-04 09:00:00,38.0,33.9,29.99,NNW,339,3.0,3.0,85,0.05,OVC,OVC,0.48,WeatherDisplay:10.37,2013-05-04 14:00:00,
2013-05-04 09:05:00,38.0,33.9,29.99,North,360,5.0,5.0,85,0.06,RA,RA,0.49,WeatherDisplay:10.37,2013-05-04 14:05:00,
2013-05-04 09:11:00,38.1,34.0,29.99,North,360,3.5,3.5,85,0.05,RA,RA,0.49,WeatherDisplay:10.37,2013-05-04 14:11:00,
2013-05-04 09:16:00,38.3,34.2,30.00,North,360,2.3,2.3,85,0.05,OVC,OVC,0.49,WeatherDisplay:10.37,2013-05-04 14:16:00,
2013-05-04 09:21:00,38.5,34.4,30.00,North,360,3.5,3.5,85,0.04,OVC,OVC,0.49,WeatherDisplay:10.37,2013-05-04 14:21:00,
2013-05-04 09:26:00,38.6,34.5,30.00,North,360,3.5,3.5,85,0.04,OVC,OVC,0.49,WeatherDisplay:10.37,2013-05-04 14:26:00,
2013-05-04 09:32:00,38.7,34.6,30.00,North,10,5.0,5.0,85,0.04,RA,RA,0.50,WeatherDisplay:10.37,2013-05-04 14:32:00,
2013-05-04 09:37:00,38.8,34.7,30.00,WNW,302,3.5,3.5,85,0.04,OVC,OVC,0.50,WeatherDisplay:10.37,2013-05-04 14:37:00,
2013-05-04 09:42:00,38.9,34.8,30.01,WNW,302,1.2,0.0,85,0.03,OVC,OVC,0.50,WeatherDisplay:10.37,2013-05-04 14:42:00,
2013-05-04 09:47:00,39.2,35.1,30.01,NW,319,6.0,6.0,85,0.04,RA,RA,0.51,WeatherDisplay:10.37,2013-05-04 14:47:00,
2013-05-04 09:52:00,39.5,35.7,30.01,North,349,4.6,4.6,86,0.03,RA,RA,0.51,WeatherDisplay:10.37,2013-05-04 14:52:00,
2013-05-04 09:58:00,39.6,35.8,30.01,NNE,18,5.8,5.8,86,0.03,OVC,OVC,0.51,WeatherDisplay:10.37,2013-05-04 14:58:00,
2013-05-04 10:03:00,39.7,35.6,30.01,NE,35,4.6,4.6,85,0.03,OVC,OVC,0.51,WeatherDisplay:10.37,2013-05-04 15:03:00,
2013-05-04 10:08:00,39.9,35.8,30.01,North,5,3.5,3.5,85,0.03,RA,RA,0.52,WeatherDisplay:10.37,2013-05-04 15:08:00,
2013-05-04 10:13:00,39.9,35.8,30.01,NNW,333,11.5,11.5,85,0.03,RA,RA,0.52,WeatherDisplay:10.37,2013-05-04 15:13:00,
2013-05-04 10:19:00,39.9,35.8,30.01,North,350,9.2,9.2,85,0.04,RA,RA,0.53,WeatherDisplay:10.37,2013-05-04 15:19:00,
2013-05-04 10:24:00,40.0,36.2,30.02,East,84,5.0,5.0,86,0.04,RA,RA,0.53,WeatherDisplay:10.37,2013-05-04 15:24:00,
2013-05-04 10:29:00,40.1,36.2,30.02,North,349,4.6,4.6,86,0.03,OVC,OVC,0.53,WeatherDisplay:10.37,2013-05-04 15:29:00,
2013-05-04 10:34:00,40.2,36.3,30.03,North,349,2.3,2.3,86,0.03,CLR,CLR,0.53,WeatherDisplay:10.37,2013-05-04 15:34:00,
2013-05-04 10:40:00,40.2,36.3,30.03,North,351,4.0,4.0,86,0.04,RA,RA,0.54,WeatherDisplay:10.37,2013-05-04 15:40:00,
2013-05-04 10:45:00,40.4,36.5,30.02,North,5,3.5,3.5,86,0.04,RA,RA,0.54,WeatherDisplay:10.37,2013-05-04 15:45:00,
2013-05-04 10:50:00,40.4,36.5,30.03,NNE,32,6.9,6.9,86,0.03,CLR,CLR,0.54,WeatherDisplay:10.37,2013-05-04 15:50:00,
2013-05-04 10:55:00,40.5,36.6,30.03,North,5,3.5,3.5,86,0.04,RA,RA,0.55,WeatherDisplay:10.37,2013-05-04 15:55:00,
2013-05-04 11:00:00,40.6,36.7,30.03,North,360,3.5,3.5,86,0.04,RA,RA,0.55,WeatherDisplay:10.37,2013-05-04 16:00:00,
2013-05-04 11:06:00,40.8,36.9,30.03,North,5,4.0,4.0,86,0.03,CLR,CLR,0.55,WeatherDisplay:10.37,2013-05-04 16:06:00,
2013-05-04 11:11:00,40.9,37.0,30.03,North,355,4.6,4.6,86,0.03,CLR,CLR,0.55,WeatherDisplay:10.37,2013-05-04 16:11:00,
2013-05-04 11:16:00,40.9,37.0,30.03,NNE,19,5.8,5.8,86,0.03,CLR,CLR,0.56,WeatherDisplay:10.37,2013-05-04 16:16:00,
2013-05-04 11:22:00,40.9,37.0,30.03,NE,38,5.0,5.0,86,0.03,RA,RA,0.56,WeatherDisplay:10.37,2013-05-04 16:22:00,
2013-05-04 11:27:00,41.1,37.2,30.03,NNE,33,4.6,4.6,86,0.03,RA,RA,0.56,WeatherDisplay:10.37,2013-05-04 16:27:00,
2013-05-04 11:32:00,41.3,37.4,30.03,NNW,348,10.4,10.4,86,0.03,CLR,CLR,0.56,WeatherDisplay:10.37,2013-05-04 16:32:00,
2013-05-04 11:37:00,41.4,37.5,30.03,NNE,21,6.0,6.0,86,0.04,RA,RA,0.57,WeatherDisplay:10.37,2013-05-04 16:37:00,
2013-05-04 11:42:00,41.5,37.6,30.04,NNE,15,5.8,5.8,86,0.03,RA,RA,0.57,WeatherDisplay:10.37,2013-05-04 16:42:00,
2013-05-04 11:48:00,41.7,37.8,30.04,North,11,4.6,4.6,86,0.03,CLR,CLR,0.57,WeatherDisplay:10.37,2013-05-04 16:48:00,
2013-05-04 11:53:00,41.7,37.8,30.04,North,5,9.2,9.2,86,0.03,CLR,CLR,0.57,WeatherDisplay:10.37,2013-05-04 16:53:00,
2013-05-04 11:58:00,41.5,37.6,30.04,North,5,3.5,3.5,86,0.02,CLR,CLR,0.57,WeatherDisplay:10.37,2013-05-04 16:58:00,
2013-05-04 12:03:00,41.6,37.7,30.04,NNE,26,5.8,5.8,86,0.02,CLR,CLR,0.57,WeatherDisplay:10.37,2013-05-04 17:03:00,
2013-05-04 12:08:00,41.7,37.8,30.04,NNE,17,4.6,4.6,86,0.03,RA,RA,0.58,WeatherDisplay:10.37,2013-05-04 17:08:00,
2013-05-04 12:13:00,41.9,38.0,30.04,NE,42,5.0,5.0,86,0.03,RA,RA,0.58,WeatherDisplay:10.37,2013-05-04 17:13:00,
2013-05-04 12:18:00,42.1,38.2,30.04,NNE,29,4.6,4.6,86,0.02,CLR,CLR,0.58,WeatherDisplay:10.37,2013-05-04 17:18:00,
2013-05-04 12:23:00,42.3,38.4,30.04,NNE,17,11.5,11.5,86,0.02,CLR,CLR,0.58,WeatherDisplay:10.37,2013-05-04 17:23:00,
2013-05-04 12:29:00,42.3,38.4,30.03,North,360,6.9,6.9,86,0.02,CLR,CLR,0.58,WeatherDisplay:10.37,2013-05-04 17:29:00,
2013-05-04 12:34:00,42.5,38.6,30.03,North,5,7.0,7.0,86,0.01,OVC,OVC,0.58,WeatherDisplay:10.37,2013-05-04 17:34:00,
2013-05-04 12:39:00,42.7,38.8,30.04,North,355,11.5,11.5,86,0.01,OVC,OVC,0.58,WeatherDisplay:10.37,2013-05-04 17:39:00,
2013-05-04 12:44:00,43.0,39.1,30.04,NNW,347,7.0,7.0,86,0.01,OVC,OVC,0.58,WeatherDisplay:10.37,2013-05-04 17:44:00,
2013-05-04 12:49:00,43.2,39.3,30.04,NE,34,6.9,6.9,86,0.01,OVC,OVC,0.58,WeatherDisplay:10.37,2013-05-04 17:49:00,
2013-05-04 12:54:00,43.6,39.7,30.03,North,360,4.0,4.0,86,0.01,OVC,OVC,0.58,WeatherDisplay:10.37,2013-05-04 17:54:00,
2013-05-04 12:59:00,43.8,39.9,30.04,NNE,17,4.6,4.6,86,0.01,OVC,OVC,0.58,WeatherDisplay:10.37,2013-05-04 17:59:00,
2013-05-04 13:04:00,44.1,40.2,30.04,NNW,342,3.5,3.5,86,0.00,OVC,OVC,0.58,WeatherDisplay:10.37,2013-05-04 18:04:00,
2013-05-04 13:10:00,44.3,40.4,30.04,North,349,4.6,4.6,86,0.00,OVC,OVC,0.58,WeatherDisplay:10.37,2013-05-04 18:10:00,
2013-05-04 13:15:00,44.5,40.6,30.04,NNE,30,4.6,4.6,86,0.00,OVC,OVC,0.58,WeatherDisplay:10.37,2013-05-04 18:15:00,
2013-05-04 13:20:00,44.7,40.8,30.04,NNW,336,5.8,5.8,86,0.00,OVC,OVC,0.58,WeatherDisplay:10.37,2013-05-04 18:20:00,
2013-05-04 13:25:00,44.8,40.9,30.04,NNE,17,5.8,5.8,86,0.00,OVC,OVC,0.58,WeatherDisplay:10.37,2013-05-04 18:25:00,
2013-05-04 13:30:00,45.0,41.1,30.04,North,360,5.8,5.8,86,0.00,OVC,OVC,0.58,WeatherDisplay:10.37,2013-05-04 18:30:00,
2013-05-04 13:36:00,45.3,41.4,30.03,NNE,30,3.5,3.5,86,0.00,OVC,OVC,0.58,WeatherDisplay:10.37,2013-05-04 18:36:00,
2013-05-04 13:41:00,45.7,41.8,30.03,NNE,26,3.5,3.5,86,0.00,OVC,OVC,0.58,WeatherDisplay:10.37,2013-05-04 18:41:00,
2013-05-04 13:46:00,46.0,42.0,30.03,NNW,342,1.2,0.0,86,0.00,OVC,OVC,0.58,WeatherDisplay:10.37,2013-05-04 18:46:00,
2013-05-04 13:52:00,46.2,42.2,30.03,NW,307,3.5,3.5,86,0.00,OVC,OVC,0.58,WeatherDisplay:10.37,2013-05-04 18:52:00,
2013-05-04 13:57:00,46.4,42.4,30.03,NNE,12,4.6,4.6,86,0.00,OVC,OVC,0.58,WeatherDisplay:10.37,2013-05-04 18:57:00,
2013-05-04 14:02:00,46.4,42.1,30.03,NNW,331,3.5,3.5,85,0.00,OVC,OVC,0.58,WeatherDisplay:10.37,2013-05-04 19:02:00,
2013-05-04 14:07:00,46.6,42.6,30.03,NNW,331,1.2,1.3,86,0.00,OVC,OVC,0.58,WeatherDisplay:10.37,2013-05-04 19:07:00,
2013-05-04 14:12:00,46.5,42.5,30.03,North,351,2.3,2.7,86,0.00,OVC,OVC,0.58,WeatherDisplay:10.37,2013-05-04 19:12:00,
2013-05-04 14:18:00,46.4,42.1,30.04,NNW,346,6.9,6.9,85,0.00,OVC,OVC,0.58,WeatherDisplay:10.37,2013-05-04 19:18:00,
2013-05-04 14:23:00,46.3,42.0,30.04,North,355,3.5,3.5,85,0.00,OVC,OVC,0.58,WeatherDisplay:10.37,2013-05-04 19:23:00,
2013-05-04 14:28:00,46.3,42.0,30.04,NNW,343,5.8,5.8,85,0.00,OVC,OVC,0.58,WeatherDisplay:10.37,2013-05-04 19:28:00,
2013-05-04 14:33:00,46.3,42.0,30.04,North,355,3.5,3.5,85,0.00,OVC,OVC,0.58,WeatherDisplay:10.37,2013-05-04 19:33:00,
2013-05-04 14:38:00,46.2,41.9,30.05,NNW,346,3.5,3.5,85,0.01,RA,RA,0.59,WeatherDisplay:10.37,2013-05-04 19:38:00,
2013-05-04 14:43:00,46.3,42.0,30.05,North,349,3.5,3.5,85,0.01,RA,RA,0.59,WeatherDisplay:10.37,2013-05-04 19:43:00,
2013-05-04 14:49:00,46.4,42.1,30.05,NE,54,0.0,0.0,85,0.01,OVC,OVC,0.59,WeatherDisplay:10.37,2013-05-04 19:49:00,
2013-05-04 14:54:00,46.5,42.2,30.05,NNW,336,1.2,0.0,85,0.01,OVC,OVC,0.59,WeatherDisplay:10.37,2013-05-04 19:54:00,
2013-05-04 14:59:00,46.5,42.2,30.05,NNW,333,3.5,3.5,85,0.01,OVC,OVC,0.59,WeatherDisplay:10.37,2013-05-04 19:59:00,
2013-05-04 15:04:00,46.5,42.2,30.05,NNW,333,2.3,2.3,85,0.01,OVC,OVC,0.59,WeatherDisplay:10.37,2013-05-04 20:04:00,
2013-05-04 15:10:00,46.5,42.2,30.04,NW,325,2.3,2.3,85,0.01,OVC,OVC,0.59,WeatherDisplay:10.37,2013-05-04 20:10:00,
2013-05-04 15:15:00,46.5,42.2,30.04,NW,313,3.0,3.0,85,0.01,OVC,OVC,0.59,WeatherDisplay:10.37,2013-05-04 20:15:00,
2013-05-04 15:20:00,46.7,42.4,30.05,NNW,329,3.5,3.5,85,0.01,OVC,OVC,0.59,WeatherDisplay:10.37,2013-05-04 20:20:00,
2013-05-04 15:25:00,46.7,42.4,30.04,NNW,330,3.5,3.5,85,0.01,OVC,OVC,0.59,WeatherDisplay:10.37,2013-05-04 20:25:00,
2013-05-04 15:30:00,46.7,42.4,30.04,NNW,331,3.5,3.5,85,0.01,OVC,OVC,0.59,WeatherDisplay:10.37,2013-05-04 20:30:00,
2013-05-04 15:35:00,46.7,42.4,30.04,NNW,329,2.3,2.3,85,0.01,OVC,OVC,0.59,WeatherDisplay:10.37,2013-05-04 20:35:00,
2013-05-04 15:41:00,46.6,42.3,30.04,NNW,329,3.5,3.5,85,0.00,OVC,OVC,0.59,WeatherDisplay:10.37,2013-05-04 20:41:00,
2013-05-04 15:46:00,46.6,42.3,30.04,NW,322,4.6,4.6,85,0.00,OVC,OVC,0.59,WeatherDisplay:10.37,2013-05-04 20:46:00,
2013-05-04 15:51:00,46.5,42.2,30.04,NW,317,2.3,2.3,85,0.00,OVC,OVC,0.59,WeatherDisplay:10.37,2013-05-04 20:51:00,
2013-05-04 15:56:00,46.6,42.3,30.04,NNW,331,3.5,3.5,85,0.00,OVC,OVC,0.59,WeatherDisplay:10.37,2013-05-04 20:56:00,
2013-05-04 16:02:00,46.5,42.2,30.04,NW,309,3.5,3.5,85,0.00,OVC,OVC,0.59,WeatherDisplay:10.37,2013-05-04 21:02:00,
2013-05-04 16:07:00,46.6,42.3,30.04,NNE,15,3.5,3.5,85,0.00,OVC,OVC,0.59,WeatherDisplay:10.37,2013-05-04 21:07:00,
2013-05-04 16:12:00,46.6,42.3,30.04,West,281,4.6,4.6,85,0.00,OVC,OVC,0.59,WeatherDisplay:10.37,2013-05-04 21:12:00,
2013-05-04 16:17:00,46.6,42.3,30.04,WNW,290,3.5,3.5,85,0.00,OVC,OVC,0.59,WeatherDisplay:10.37,2013-05-04 21:17:00,
2013-05-04 16:22:00,46.8,42.5,30.04,WNW,296,4.6,4.6,85,0.00,OVC,OVC,0.59,WeatherDisplay:10.37,2013-05-04 21:22:00,
2013-05-04 16:28:00,46.9,42.6,30.04,NW,323,3.5,3.5,85,0.00,OVC,OVC,0.59,WeatherDisplay:10.37,2013-05-04 21:28:00,
2013-05-04 16:33:00,47.0,42.7,30.04,NW,317,3.5,3.5,85,0.01,RA,RA,0.60,WeatherDisplay:10.37,2013-05-04 21:33:00,
2013-05-04 16:38:00,47.0,42.7,30.04,NNW,331,2.3,2.3,85,0.01,RA,RA,0.60,WeatherDisplay:10.37,2013-05-04 21:38:00,
2013-05-04 16:43:00,47.0,42.7,30.04,West,280,3.5,3.5,85,0.01,OVC,OVC,0.60,WeatherDisplay:10.37,2013-05-04 21:43:00,
2013-05-04 16:48:00,46.8,42.5,30.04,NNW,333,5.0,5.0,85,0.01,OVC,OVC,0.60,WeatherDisplay:10.37,2013-05-04 21:48:00,
2013-05-04 16:54:00,46.7,42.4,30.04,NNW,336,3.5,3.5,85,0.01,OVC,OVC,0.60,WeatherDisplay:10.37,2013-05-04 21:54:00,
2013-05-04 16:59:00,46.7,42.4,30.05,NW,308,3.5,3.5,85,0.01,OVC,OVC,0.60,WeatherDisplay:10.37,2013-05-04 21:59:00,
2013-05-04 17:04:00,46.6,42.3,30.04,North,355,3.5,3.5,85,0.01,OVC,OVC,0.60,WeatherDisplay:10.37,2013-05-04 22:04:00,
2013-05-04 17:09:00,46.6,42.3,30.05,NW,311,3.5,3.5,85,0.01,OVC,OVC,0.60,WeatherDisplay:10.37,2013-05-04 22:09:00,
2013-05-04 17:15:00,46.6,42.3,30.05,WNW,296,5.8,5.8,85,0.01,OVC,OVC,0.60,WeatherDisplay:10.37,2013-05-04 22:15:00,
2013-05-04 17:20:00,46.5,42.2,30.05,NW,315,3.5,3.5,85,0.01,OVC,OVC,0.60,WeatherDisplay:10.37,2013-05-04 22:20:00,
2013-05-04 17:25:00,46.5,42.2,30.05,NW,311,2.0,2.0,85,0.01,OVC,OVC,0.60,WeatherDisplay:10.37,2013-05-04 22:25:00,
2013-05-04 17:30:00,46.5,42.2,30.05,NNW,328,4.6,4.6,85,0.01,OVC,OVC,0.60,WeatherDisplay:10.37,2013-05-04 22:30:00,
2013-05-04 17:36:00,46.5,42.2,30.05,WSW,258,6.9,6.9,85,0.00,OVC,OVC,0.60,WeatherDisplay:10.37,2013-05-04 22:36:00,
2013-05-04 17:41:00,46.5,42.2,30.05,North,355,4.6,4.6,85,0.00,OVC,OVC,0.60,WeatherDisplay:10.37,2013-05-04 22:41:00,
2013-05-04 17:46:00,46.4,42.1,30.06,NW,310,3.5,3.5,85,0.00,OVC,OVC,0.60,WeatherDisplay:10.37,2013-05-04 22:46:00,
2013-05-04 17:51:00,46.3,42.0,30.06,NW,306,3.5,3.5,85,0.00,OVC,OVC,0.60,WeatherDisplay:10.37,2013-05-04 22:51:00,
2013-05-04 17:57:00,45.9,41.6,30.06,WNW,296,4.6,4.6,85,0.01,RA,RA,0.61,WeatherDisplay:10.37,2013-05-04 22:57:00,
2013-05-04 18:02:00,45.5,41.3,30.06,WNW,284,4.6,4.6,85,0.01,RA,RA,0.61,WeatherDisplay:10.37,2013-05-04 23:02:00,
2013-05-04 18:07:00,45.0,40.8,30.06,WNW,292,3.5,3.5,85,0.01,OVC,OVC,0.61,WeatherDisplay:10.37,2013-05-04 23:07:00,
2013-05-04 18:12:00,44.9,40.7,30.06,WNW,286,3.5,3.5,85,0.01,OVC,OVC,0.61,WeatherDisplay:10.37,2013-05-04 23:12:00,
2013-05-04 18:17:00,44.6,40.4,30.07,NNW,333,4.0,4.0,85,0.01,OVC,OVC,0.61,WeatherDisplay:10.37,2013-05-04 23:17:00,
2013-05-04 18:23:00,44.5,40.3,30.07,WNW,292,3.0,3.0,85,0.01,OVC,OVC,0.61,WeatherDisplay:10.37,2013-05-04 23:23:00,
2013-05-04 18:28:00,44.4,40.2,30.07,WNW,292,3.5,3.5,85,0.01,OVC,OVC,0.61,WeatherDisplay:10.37,2013-05-04 23:28:00,
2013-05-04 18:33:00,44.3,40.1,30.07,WNW,292,3.5,3.5,85,0.01,OVC,OVC,0.61,WeatherDisplay:10.37,2013-05-04 23:33:00,
2013-05-04 18:38:00,43.9,39.7,30.06,WNW,286,4.6,4.6,85,0.01,OVC,OVC,0.61,WeatherDisplay:10.37,2013-05-04 23:38:00,
2013-05-04 18:43:00,43.8,39.6,30.06,WNW,301,4.6,4.6,85,0.01,OVC,OVC,0.61,WeatherDisplay:10.37,2013-05-04 23:43:00,
2013-05-04 18:48:00,43.7,39.5,30.07,WNW,291,3.5,3.5,85,0.01,OVC,OVC,0.61,WeatherDisplay:10.37,2013-05-04 23:48:00,
2013-05-04 18:53:00,43.5,39.3,30.07,WNW,283,4.0,4.0,85,0.01,OVC,OVC,0.61,WeatherDisplay:10.37,2013-05-04 23:53:00,
2013-05-04 18:58:00,43.3,39.1,30.07,WNW,294,3.5,3.5,85,0.00,OVC,OVC,0.61,WeatherDisplay:10.37,2013-05-04 23:58:00,
2013-05-04 19:04:00,43.3,39.1,30.07,WNW,293,3.5,3.5,85,0.00,OVC,OVC,0.61,WeatherDisplay:10.37,2013-05-05 00:04:00,
2013-05-04 19:09:00,43.2,39.0,30.07,NW,308,5.8,5.8,85,0.00,OVC,OVC,0.61,WeatherDisplay:10.37,2013-05-05 00:09:00,
2013-05-04 19:14:00,43.0,38.8,30.07,NW,313,3.5,3.5,85,0.00,OVC,OVC,0.61,WeatherDisplay:10.37,2013-05-05 00:14:00,
2013-05-04 19:19:00,42.7,38.5,30.07,WNW,298,3.5,3.5,85,0.00,OVC,OVC,0.61,WeatherDisplay:10.37,2013-05-05 00:19:00,
2013-05-04 19:24:00,42.5,38.3,30.07,NNW,333,5.8,5.8,85,0.00,OVC,OVC,0.61,WeatherDisplay:10.37,2013-05-05 00:24:00,
2013-05-04 19:29:00,42.4,38.2,30.08,WNW,297,4.0,4.0,85,0.00,OVC,OVC,0.61,WeatherDisplay:10.37,2013-05-05 00:29:00,
2013-05-04 19:34:00,42.3,38.1,30.07,WNW,296,4.6,4.6,85,0.00,OVC,OVC,0.61,WeatherDisplay:10.37,2013-05-05 00:34:00,
2013-05-04 19:40:00,42.3,38.1,30.08,NNW,330,3.0,3.0,85,0.00,OVC,OVC,0.61,WeatherDisplay:10.37,2013-05-05 00:40:00,
2013-05-04 19:45:00,42.3,38.1,30.08,NW,321,1.2,0.0,85,0.00,OVC,OVC,0.61,WeatherDisplay:10.37,2013-05-05 00:45:00,
2013-05-04 19:50:00,42.3,38.1,30.08,NW,319,4.6,4.6,85,0.00,OVC,OVC,0.61,WeatherDisplay:10.37,2013-05-05 00:50:00,
2013-05-04 19:55:00,42.3,38.1,30.08,NW,319,3.5,3.5,85,0.00,OVC,OVC,0.61,WeatherDisplay:10.37,2013-05-05 00:55:00,
2013-05-04 20:00:00,42.4,38.2,30.08,NW,317,2.3,2.3,85,0.00,OVC,OVC,0.61,WeatherDisplay:10.37,2013-05-05 01:00:00,
2013-05-04 20:06:00,42.4,38.2,30.09,NW,321,0.0,0.0,85,0.00,OVC,OVC,0.61,WeatherDisplay:10.37,2013-05-05 01:06:00,
2013-05-04 20:11:00,42.5,38.3,30.09,NW,321,0.0,0.0,85,0.00,OVC,OVC,0.61,WeatherDisplay:10.37,2013-05-05 01:11:00,
2013-05-04 20:16:00,42.5,38.3,30.10,NW,321,0.0,0.0,85,0.01,RA,RA,0.62,WeatherDisplay:10.37,2013-05-05 01:16:00,
2013-05-04 20:21:00,42.4,38.2,30.10,NW,321,3.0,3.0,85,0.02,RA,RA,0.63,WeatherDisplay:10.37,2013-05-05 01:21:00,
2013-05-04 20:27:00,42.5,38.3,30.09,NNW,340,3.5,3.5,85,0.06,RA,RA,0.68,WeatherDisplay:10.37,2013-05-05 01:27:00,
2013-05-04 20:32:00,42.6,38.4,30.09,NW,326,3.5,3.5,85,0.11,RA,RA,0.72,WeatherDisplay:10.37,2013-05-05 01:32:00,
2013-05-04 20:37:00,42.6,38.4,30.09,NW,326,2.3,2.3,85,0.12,RA,RA,0.73,WeatherDisplay:10.37,2013-05-05 01:37:00,
2013-05-04 20:42:00,42.7,38.5,30.09,WNW,302,4.6,4.6,85,0.13,RA,RA,0.74,WeatherDisplay:10.37,2013-05-05 01:42:00,
2013-05-04 20:47:00,42.8,38.6,30.08,NNW,327,3.0,3.0,85,0.14,RA,RA,0.75,WeatherDisplay:10.37,2013-05-05 01:47:00,
2013-05-04 20:52:00,42.8,38.6,30.09,NNW,333,2.3,0.0,85,0.15,RA,RA,0.76,WeatherDisplay:10.37,2013-05-05 01:52:00,
2013-05-04 20:58:00,42.8,38.6,30.09,NNW,346,3.5,3.5,85,0.15,RA,RA,0.76,WeatherDisplay:10.37,2013-05-05 01:58:00,
2013-05-04 21:03:00,42.9,38.7,30.09,NNW,344,2.3,2.3,85,0.15,CLR,CLR,0.76,WeatherDisplay:10.37,2013-05-05 02:03:00,
2013-05-04 21:08:00,42.8,38.6,30.09,NNW,344,0.0,0.0,85,0.15,CLR,CLR,0.76,WeatherDisplay:10.37,2013-05-05 02:08:00,
2013-05-04 21:13:00,42.8,38.6,30.10,NNW,336,3.5,3.5,85,0.16,RA,RA,0.77,WeatherDisplay:10.37,2013-05-05 02:13:00,
2013-05-04 21:19:00,43.0,38.8,30.10,NNW,336,3.0,3.0,85,0.15,RA,RA,0.77,WeatherDisplay:10.37,2013-05-05 02:19:00,
2013-05-04 21:24:00,43.0,38.8,30.10,NNW,346,3.5,3.5,85,0.13,CLR,CLR,0.77,WeatherDisplay:10.37,2013-05-05 02:24:00,
2013-05-04 21:29:00,43.0,38.8,30.10,NNW,341,3.5,3.5,85,0.07,CLR,CLR,0.77,WeatherDisplay:10.37,2013-05-05 02:29:00,
2013-05-04 21:34:00,43.0,38.8,30.10,NW,321,2.3,2.3,85,0.05,OVC,OVC,0.77,WeatherDisplay:10.37,2013-05-05 02:34:00,
2013-05-04 21:39:00,43.0,38.8,30.09,NNW,333,2.3,2.3,85,0.04,OVC,OVC,0.77,WeatherDisplay:10.37,2013-05-05 02:39:00,
2013-05-04 21:44:00,43.0,38.8,30.10,NNW,331,3.5,3.5,85,0.03,OVC,OVC,0.77,WeatherDisplay:10.37,2013-05-05 02:44:00,
2013-05-04 21:50:00,43.0,38.8,30.09,NNW,335,6.0,6.0,85,0.02,OVC,OVC,0.77,WeatherDisplay:10.37,2013-05-05 02:50:00,
2013-05-04 21:55:00,43.0,38.8,30.09,NNW,329,5.8,5.8,85,0.01,OVC,OVC,0.77,WeatherDisplay:10.37,2013-05-05 02:55:00,
2013-05-04 22:00:00,43.0,38.8,30.09,NNE,25,1.2,0.0,85,0.01,OVC,OVC,0.77,WeatherDisplay:10.37,2013-05-05 03:00:00,
2013-05-04 22:05:00,43.0,39.1,30.10,NNW,346,3.5,3.5,86,0.01,OVC,OVC,0.77,WeatherDisplay:10.37,2013-05-05 03:05:00,
2013-05-04 22:10:00,43.0,39.1,30.10,NNW,346,3.5,3.5,86,0.01,OVC,OVC,0.77,WeatherDisplay:10.37,2013-05-05 03:10:00,
2013-05-04 22:16:00,43.0,39.1,30.10,NNW,346,3.5,0.0,86,0.00,OVC,OVC,0.77,WeatherDisplay:10.37,2013-05-05 03:16:00,
2013-05-04 22:21:00,43.0,39.1,30.11,NNW,346,3.5,3.5,86,0.00,OVC,OVC,0.77,WeatherDisplay:10.37,2013-05-05 03:21:00,
2013-05-04 22:26:00,43.0,39.1,30.11,NW,311,3.5,3.5,86,0.00,OVC,OVC,0.77,WeatherDisplay:10.37,2013-05-05 03:26:00,
2013-05-04 22:31:00,43.0,39.1,30.11,NE,43,4.0,4.0,86,0.00,OVC,OVC,0.77,WeatherDisplay:10.37,2013-05-05 03:31:00,
2013-05-04 22:37:00,43.0,39.1,30.11,NNE,21,4.6,4.6,86,0.00,CLR,CLR,0.77,WeatherDisplay:10.37,2013-05-05 03:37:00,
2013-05-04 22:42:00,43.0,39.1,30.11,NNE,17,0.0,0.0,86,0.00,CLR,CLR,0.77,WeatherDisplay:10.37,2013-05-05 03:42:00,
2013-05-04 22:47:00,43.1,38.9,30.11,North,351,2.3,2.3,85,0.01,RA,RA,0.78,WeatherDisplay:10.37,2013-05-05 03:47:00,
2013-05-04 22:52:00,43.1,38.9,30.10,North,355,4.6,4.6,85,0.01,RA,RA,0.78,WeatherDisplay:10.37,2013-05-05 03:52:00,
2013-05-04 22:57:00,43.0,39.1,30.10,NW,321,3.5,3.5,86,0.02,RA,RA,0.79,WeatherDisplay:10.37,2013-05-05 03:57:00,
2013-05-04 23:01:00,43.0,39.1,30.09,North,351,3.5,3.5,86,0.02,RA,RA,0.79,WeatherDisplay:10.37,2013-05-05 04:01:00,
2013-05-04 23:03:00,42.9,39.0,30.10,North,9,3.0,3.0,86,0.02,RA,RA,0.79,WeatherDisplay:10.37,2013-05-05 04:03:00,
2013-05-04 23:06:00,42.9,39.0,30.09,NNW,347,3.5,3.5,86,0.02,CLR,CLR,0.79,WeatherDisplay:10.37,2013-05-05 04:06:00,
2013-05-04 23:11:00,42.9,39.0,30.09,North,9,5.8,5.8,86,0.02,CLR,CLR,0.79,WeatherDisplay:10.37,2013-05-05 04:11:00,
2013-05-04 23:16:00,42.9,39.0,30.09,NNW,333,3.5,0.0,86,0.02,CLR,CLR,0.79,WeatherDisplay:10.37,2013-05-05 04:16:00,
2013-05-04 23:22:00,42.9,39.0,30.09,NW,319,5.8,5.8,86,0.02,CLR,CLR,0.79,WeatherDisplay:10.37,2013-05-05 04:22:00,
2013-05-04 23:27:00,43.0,39.1,30.09,North,355,3.5,3.5,86,0.03,RA,RA,0.80,WeatherDisplay:10.37,2013-05-05 04:27:00,
2013-05-04 23:32:00,43.1,38.9,30.10,NNE,12,5.8,5.8,85,0.03,RA,RA,0.80,WeatherDisplay:10.37,2013-05-05 04:32:00,
2013-05-04 23:37:00,43.2,39.0,30.10,NNE,12,3.5,3.5,85,0.03,OVC,OVC,0.80,WeatherDisplay:10.37,2013-05-05 04:37:00,
2013-05-04 23:43:00,43.3,39.1,30.10,NNW,344,9.2,9.2,85,0.03,OVC,OVC,0.80,WeatherDisplay:10.37,2013-05-05 04:43:00,
2013-05-04 23:48:00,43.3,39.1,30.10,NNW,346,8.1,8.1,85,0.02,OVC,OVC,0.80,WeatherDisplay:10.37,2013-05-05 04:48:00,
2013-05-04 23:53:00,43.4,39.2,30.10,North,11,5.8,5.8,85,0.02,OVC,OVC,0.80,WeatherDisplay:10.37,2013-05-05 04:53:00,
2013-05-04 23:58:00,43.4,39.5,30.10,NNW,338,3.5,3.5,86,0.01,OVC,OVC,0.80,WeatherDisplay:10.37,2013-05-05 04:58:00,